Location: Laterina
(43.5167°N, 11.7167°E)
Time: 23:15:36
(UTC+00:00)

Cosmos 1125 Rocket - Pass Details

Date: 20 June 2021
Orbit: 757 x 780 km, 74.0° (Epoch: 29 July)

Event Time Altitude Azimuth Distance (km) Brightness Sun altitude
Rises 02:47:31 0° 328° (NNW) 3,245 6.9 -7.2°
Reaches altitude 10° 02:50:13 10° 316° (NW) 2,318 6.0 -6.8°
Maximum altitude 02:54:31 26° 261° (W) 1,478 4.5 -6.2°
Drops below altitude 10° 02:58:50 10° 206° (SSW) 2,316 5.4 -5.6°
Sets 03:01:32 0° 194° (SSW) 3,242 6.3 -5.2°
